Daytona Beach, FL

1:32 AM EDT on October 17, 2017 (GMT -0400)
Daytona Beach International

Weather History for KDAB - March, 2013

Change the Weather History Date:

Sunday, March 10, 2013

  Actual Average Record
Temperature  
Mean Temperature 62 °F 64 °F  
Max Temperature 74 °F 74 °F 85 °F (2015)
Min Temperature 50 °F 53 °F 30 °F (1940)
Degree Days  
Heating Degree Days 3 4  
Month to date heating degree days 114 41  
Since 1 July heating degree days 580 723  
Cooling Degree Days 0 2  
Month to date cooling degree days 0 20  
Year to date cooling degree days 133 85  
Growing Degree Days 12 (Base 50)    
Moisture  
Dew Point 53 °F    
Average Humidity 73    
Maximum Humidity 96    
Minimum Humidity 49    
Precipitation  
Precipitation 0.00 in 0.13 in 1.82 in (1996)
Month to date precipitation 0.00 1.31  
Year to date precipitation 1.88 6.83  
Sea Level Pressure  
Sea Level Pressure 30.17 in    
Wind  
Wind Speed 6 mph (East)    
Max Wind Speed 21 mph    
Max Gust Speed 28 mph    
Visibility 10 miles    
Events      
T = Trace of Precipitation, MM = Missing Value Source: NWS Daily Summary

Daily Weather History Graph

Daily Weather History Graph

Search for Another Location

Airport or City:

Trip Planner

Search our weather history database for the weather conditions in past years. The results will help you decide how hot, cold, wet, or windy it might be!

Date:

Astronomy

Mar. 10, 2013 Rise Set
Actual Time 7:39 AM EDT 7:29 PM EDT
Civil Twilight 7:15 AM EDT 7:53 PM EDT
Nautical Twilight 6:48 AM EDT 8:20 PM EDT
Astronomical Twilight 6:20 AM EDT 8:48 PM EDT
Moon 6:35 AM EDT (3/10) 6:36 PM EDT (3/10)
Length of Visible Light 12h 37m
Length of Day
11h 50m
Waning Crescent, 2% of the Moon is Illuminated
Mar 10
Waning Crescent
Mar 11
New
Mar 19
First Quarter
Mar 27
Full
Apr 3
Last Quarter

Hourly Weather History & Observations

Time (EDT) Temp. Dew Point Humidity Pressure Visibility Wind Dir Wind Speed Gust Speed Precip Events Conditions
12:53 AM 55.0 °F 52.0 °F 89% 30.20 in 10.0 mi Calm Calm - N/A   Mostly Cloudy
1:53 AM 54.0 °F 51.1 °F 90% 30.17 in 10.0 mi ENE 3.5 mph - N/A   Mostly Cloudy
3:53 AM 61.0 °F 51.1 °F 70% 30.16 in 10.0 mi Calm Calm - N/A   Scattered Clouds
4:53 AM 52.0 °F 50.0 °F 93% 30.15 in 10.0 mi Calm Calm - N/A   Scattered Clouds
5:53 AM 51.1 °F 48.9 °F 92% 30.17 in 10.0 mi Calm Calm - N/A   Scattered Clouds
6:53 AM 51.1 °F 48.9 °F 92% 30.17 in 10.0 mi Calm Calm - N/A   Scattered Clouds
7:53 AM 50.0 °F 48.0 °F 93% 30.18 in 10.0 mi Calm Calm - N/A   Scattered Clouds
8:53 AM 57.9 °F 52.0 °F 81% 30.20 in 10.0 mi Calm Calm - N/A   Partly Cloudy
9:53 AM 68.0 °F 55.9 °F 65% 30.21 in 10.0 mi NE 3.5 mph - N/A   Scattered Clouds
10:53 AM 70.0 °F 52.0 °F 53% 30.22 in 10.0 mi East 12.7 mph - N/A   Partly Cloudy
11:53 AM 71.1 °F 52.0 °F 51% 30.19 in 10.0 mi East 13.8 mph 24.2 mph N/A   Partly Cloudy
12:53 PM 71.1 °F 51.1 °F 49% 30.17 in 10.0 mi East 15.0 mph 21.9 mph N/A   Scattered Clouds
1:53 PM 73.0 °F 53.1 °F 49% 30.16 in 10.0 mi ENE 15.0 mph 24.2 mph N/A   Partly Cloudy
2:53 PM 72.0 °F 52.0 °F 49% 30.15 in 10.0 mi East 11.5 mph 20.7 mph N/A   Partly Cloudy
3:53 PM 72.0 °F 53.1 °F 51% 30.14 in 10.0 mi East 15.0 mph 19.6 mph N/A   Partly Cloudy
4:53 PM 71.1 °F 54.0 °F 55% 30.14 in 10.0 mi East 12.7 mph 19.6 mph N/A   Partly Cloudy
5:53 PM 70.0 °F 54.0 °F 57% 30.14 in 10.0 mi Variable 5.8 mph - N/A   Partly Cloudy
6:53 PM 68.0 °F 54.0 °F 61% 30.14 in 10.0 mi East 5.8 mph - N/A   Partly Cloudy
7:53 PM 66.0 °F 55.0 °F 68% 30.15 in 10.0 mi East 4.6 mph - N/A   Partly Cloudy
8:53 PM 64.0 °F 55.0 °F 73% 30.16 in 10.0 mi Calm Calm - N/A   Clear
9:53 PM 64.0 °F 55.0 °F 73% 30.16 in 10.0 mi Calm Calm - N/A   Clear
10:53 PM 63.0 °F 55.0 °F 75% 30.16 in 10.0 mi East 3.5 mph - N/A   Partly Cloudy
11:53 PM 64.0 °F 53.1 °F 67% 30.15 in 10.0 mi Variable 4.6 mph - N/A   Partly Cloudy
12:53 AM 64.9 °F 54.0 °F 68% 30.14 in 10.0 mi East 4.6 mph - N/A   Mostly Cloudy